Location: Nasgenstadt
(48.2786°N, 9.7553°E)
Time: 20:22:43
(UTC+01:00)

Envisat - Visible Passes

Search period start: 21 February 2018 00:00
Search period end: 03 March 2018 00:00
Orbit: 764 x 766 km, 98.2° (Epoch: 21 February)

Date Brightness Start Highest point End Pass type
(mag) Time Alt. Az. Time Alt. Az. Time Alt. Az.
21 Feb 4.3 18:18:06 10° ESE 18:21:40 20° ENE 18:25:17 10° NNE visible
21 Feb 3.2 19:55:09 10° S 20:00:13 70° WSW 20:05:18 10° NNW visible
22 Feb 3.0 19:18:32 10° SSE 19:23:31 59° ENE 19:28:31 10° N visible
22 Feb 5.3 20:59:09 10° SW 21:02:55 21° W 21:06:43 10° NW visible
23 Feb 3.8 18:42:37 10° SE 18:47:00 30° ENE 18:51:24 10° N visible
23 Feb 4.2 20:21:06 10° SSW 20:25:54 41° W 20:30:43 10° NNW visible
24 Feb 3.0 19:43:58 10° SSE 19:49:03 85° WSW 19:54:11 10° NNW visible
24 Feb 5.9 21:26:49 10° WSW 21:28:51 12° W 21:30:54 10° WNW visible
25 Feb 3.2 19:07:33 10° SE 19:12:25 48° ENE 19:17:18 10° N visible
25 Feb 5.0 20:47:30 10° SSW 20:51:40 25° W 20:55:52 10° NW visible
26 Feb 4.0 18:31:52 10° ESE 18:35:58 25° ENE 18:40:05 10° N visible
26 Feb 3.8 20:09:46 10° S 20:14:42 51° W 20:19:40 10° NNW visible
27 Feb 2.9 19:32:51 10° SSE 19:37:56 79° ENE 19:43:02 10° NNW visible
27 Feb 5.7 21:14:36 10° SW 21:17:34 15° W 21:20:32 10° NW visible
28 Feb 3.5 18:56:39 10° SE 19:01:20 39° ENE 19:06:03 10° N visible
28 Feb 4.7 20:35:58 10° SSW 20:40:26 31° W 20:44:57 10° NNW visible
01 Mar 3.4 19:58:30 10° S 20:03:32 64° W 20:08:35 10° NNW visible
02 Mar 3.0 19:21:47 10° SSE 19:26:48 64° ENE 19:31:51 10° N visible
02 Mar 5.5 21:02:43 10° SW 21:06:17 19° W 21:09:53 10° NW visible
